Location: Unspecified
(0.0000°N, 0.0000°E)
Time: 02:51:37
(UTC+00:00)

Vanguard 2 Rocket - Pass Details

Date: 19 December 2018
Orbit: 554 x 3327 km, 32.9° (Epoch: 16 January)

Event Time Altitude Azimuth Distance (km) Brightness Sun altitude
Rises 18:35:28 0° 235° (SW) 6,830 13.4 -8.8°
Reaches altitude 10° 18:42:37 10° 218° (SW) 6,126 12.2 -10.4°
Maximum altitude 18:54:49 19° 179° (S) 5,555 11.2 -13.2°
Drops below altitude 10° 19:06:43 10° 141° (SE) 5,955 10.9 -15.9°
Sets 19:13:27 0° 124° (SE) 6,586 11.0 -17.4°
